Lexington Weather

Lexington, Massachusetts, USA

46°F
10/22/2019 2:16am 
  • Lexington Conditions: Mostly cloudy
  • Temperature: 46.4°F / 8.0°CWarmer 0.9°F than last hour.
  • Dew Point: 44.8°FIncreased 1.5°Fsince last hour.
  • Relative Humidity: 94%Increased 2.0% since last hour.
  • Wind: Calm, 10-min avg: Calm, gust: None
  • Barometer: 30.12 in Steady
  • Visibility: 9 miles
  • Rain Today: 0.00 in
  •   

Regional Weather Roundup
for Boston, MA

        
000
ASUS41 KBOX 211701
RWRBOX

REGIONAL WEATHER ROUNDUP
NATIONAL WEATHER SERVICE BOSTON/NORTON MA
100 PM EDT MON OCT 21 2019

NOTE:  "FAIR" INDICATES FEW OR NO CLOUDS BELOW 12,000 FEET WITH NO 
SIGNIFICANT WEATHER AND/OR OBSTRUCTIONS TO VISIBILITY.

MAZALL-211800-
EASTERN MASSACHUSETTS
  
CITY           SKY/WX    TMP DP  RH WIND       PRES   REMARKS
BOSTON         FAIR      62  49  62 E15       30.11S                  
BEVERLY        FAIR      59  48  67 NE9       30.10F                  
LAWRENCE       FAIR      63  47  55 VRB3      30.12F                  
BEDFORD        FAIR      67  47  48 N9        30.09F                  
BLUE HILL      NOT AVBL                                               
NORWOOD        FAIR      64  48  56 NE10      30.09S                  
MARSHFIELD     NOT AVBL                                               
PLYMOUTH       FAIR      58  49  72 NE15G24   30.10R                  
TAUNTON        FAIR      64  45  49 N12G22    30.08R                  
NEW BEDFORD    FAIR      62  45  53 NE14G28   30.07R                  
$$

MAZALL-211800-
CAPE COD AND THE ISLANDS
  
CITY           SKY/WX    TMP DP  RH WIND       PRES   REMARKS
FALMOUTH       PTSUNNY   57  48  72 NE21G26   30.07R                  
HYANNIS        NOT AVBL                                               
CHATHAM        NOT AVBL                                               
PROVINCETOWN   FAIR      59  51  75 NE15G23     N/A                   
NANTUCKET      CLOUDY    58  52  80 N22G28    30.02R                  
MARTHAS VNYRD  CLOUDY    61  48  62 N17G25    30.05R                  
$$
 
MAZALL-211800-
CENTRAL AND WESTERN MASSACHUSETTS
  
CITY           SKY/WX    TMP DP  RH WIND       PRES   REMARKS
WORCESTER      FAIR      58  42  55 NE9       30.09F                  
FITCHBURG      FAIR      61  46  57 E8        30.11F                  
ORANGE         FAIR      60  46  59 NW8       30.11F                  
SPRINGFIELD    NOT AVBL                                               
WESTFIELD      FAIR      62  44  51 N14       30.09F                  
NORTH ADAMS    FAIR      59  45  59 W5        30.10F                  
PITTSFIELD     FAIR      63  45  51 VRB3      30.08F                  
$$
 
RIZALL-211800-
RHODE ISLAND
  
CITY           SKY/WX    TMP DP  RH WIND       PRES   REMARKS
PROVIDENCE     FAIR      65  45  48 N17       30.07S                  
NEWPORT        FAIR      63  46  54 NE16G24   30.06R                  
BLOCK ISLAND   CLOUDY    60  49  66 NE15G22   30.06R                  
SMITHFIELD     FAIR     N/A N/A N/A NE12G20   30.08S                  
WESTERLY       FAIR      68  50  52 N12G21    30.06R                  
$$
 
CTZALL-211800-
CONNECTICUT
  
CITY           SKY/WX    TMP DP  RH WIND       PRES   REMARKS
BRADLEY INTL   FAIR      65  45  48 N13       30.08F                  
HARTFORD       FAIR      62  48  60 NE12      30.08F                  
BRIDGEPORT     FAIR      67  42  40 N12       30.07S                  
DANBURY        FAIR      64  42  44 E7        30.08F                  
GROTON         NOT AVBL                                               
NEW HAVEN      FAIR      66  48  52 N12       30.07S                  
CHESTER        FAIR      64  43  45 NE9       30.06S                  
MERIDEN        FAIR      63  45  51 NE10      30.07F                  
WILLIMANTIC    FAIR      64  42  44 NE8       30.08F                  
OXFORD         FAIR      62  43  49 N14       30.08S                  
$$

MEZ002-015-021-024-NHZ003-005-008-011-012-014-VTZ005-008-211800-
NORTHERN NEW ENGLAND
  
CITY           SKY/WX    TMP DP  RH WIND       PRES   REMARKS
PORTLAND ME    FAIR      62  46  55 E6        30.11F                  
BANGOR ME      FAIR      61  45  55 VRB3      30.11F                  
CONCORD NH     CLOUDY    51  47  86 NW5       30.13F                  
MANCHESTER NH  FAIR      60  46  59 VRB7      30.10F                  
NASHUA NH      FAIR      60  48  64 N5        30.11F                  
PORTSMOUTH NH  MOSUNNY   64  44  48 N5        30.09F                  
JAFFREY NH     FAIR      59  46  62 CALM      30.11F                  
KEENE NH       FAIR      54  48  80 CALM      30.11F                  
BURLINGTON VT  FAIR      59  46  62 NW7       30.14F                  
MT. WASHINGTON MOSUNNY   39  25  56 N13         N/A  WCI  32          
$$

NYZ052-076-211800-
EASTERN NEW YORK
  
CITY           SKY/WX    TMP DP  RH WIND       PRES   REMARKS
ALBANY         CLOUDY    51  45  79 N6        30.16S                  
NEW YORK CITY  FAIR      63  46  54 NE9       30.06S                  
$$
 
ANZALL-211800-
MARINE OBSERVATIONS
  
STATION/POSITION TIME  TEMP    WIND        PRES    VSBY  WAVE
                       AIR SEA DIR/SP/G                  HT/PER
                 (UTC) (F)     (DEG/KT/KT) (MB)    (MI)  (FT/S)
BOSTON BUOY      NOT AVBL
BUZZARDS BAY     1600   57      40/ 22/ 24 1017.6R
NANTUCKET SOUND  1640      56              1017.6
MASS BAY-STELLWA 1604   55 56   30/ 14/ 16 1019.2R  1 7/8  2/ 3
ISLE OF SHOALS   1600   53      30/ 14/ 15 1019.2R
S OF BLOCK IS    1630      60                N/A           8/11
$$

......................KEY.........................
  SKY/WX - SKY CONDITION/PRESENT WEATHER
  TMP    - TEMPERATURE IN FAHRENHEIT
  DWPT   - DEWPOINT IN FAHRENHEIT
  RH     - RELATIVE HUMIDITY IN PERCENT
  WIND   - DIRECTION AND SPEED IN MPH
  PRES   - MEAN SEA LEVEL PRESSURE IN INCHES OF HG
  WCI    - WIND CHILL INDEX
  VSB    - VISIBILITY IN MILES
  HX     - HEAT INDEX
  TC     - TEMPERATURE IN CELSIUS
  VRB    - VARIABLE WIND DIRECTION
  N/A    - NOT AVAILABLE
  
      

Other recent Regional Weather Roundups

Tue Oct 22, 2:10am

Tue Oct 22, 2:00am

Tue Oct 22, 1:10am

Tue Oct 22, 1:00am

Tue Oct 22, 12:10am

Tue Oct 22, 12:00am

Mon Oct 21, 11:10pm

Mon Oct 21, 11:00pm

Mon Oct 21, 10:10pm

Mon Oct 21, 10:01pm

Mon Oct 21, 9:10pm

Mon Oct 21, 9:00pm

Mon Oct 21, 8:10pm

Mon Oct 21, 8:00pm

Mon Oct 21, 7:10pm

Mon Oct 21, 7:01pm

Mon Oct 21, 6:10pm

Mon Oct 21, 6:01pm

Mon Oct 21, 5:10pm

Mon Oct 21, 5:01pm

Mon Oct 21, 4:10pm

Mon Oct 21, 4:00pm

Mon Oct 21, 3:10pm

Mon Oct 21, 3:01pm

Mon Oct 21, 2:10pm

Mon Oct 21, 2:00pm

Mon Oct 21, 1:10pm

Mon Oct 21, 12:10pm

Mon Oct 21, 12:00pm

Mon Oct 21, 11:10am

Mon Oct 21, 11:00am

Mon Oct 21, 10:10am

Mon Oct 21, 10:00am

Mon Oct 21, 9:10am

Mon Oct 21, 9:00am

Mon Oct 21, 7:10am

Mon Oct 21, 7:00am

Mon Oct 21, 6:10am

Mon Oct 21, 6:00am

Mon Oct 21, 5:10am

Mon Oct 21, 5:00am

Mon Oct 21, 4:10am

Mon Oct 21, 4:00am

Mon Oct 21, 3:10am

Mon Oct 21, 3:00am

Mon Oct 21, 2:10am

Mon Oct 21, 2:01am

Mon Oct 21, 1:10am

Mon Oct 21, 1:00am

Mon Oct 21, 12:10am

Mon Oct 21, 12:00am

Sun Oct 20, 11:10pm

Sun Oct 20, 11:00pm

Sun Oct 20, 10:10pm

Sun Oct 20, 10:00pm

Sun Oct 20, 9:10pm

Sun Oct 20, 9:01pm

Sun Oct 20, 8:10pm

Sun Oct 20, 8:00pm

Sun Oct 20, 7:10pm

Sun Oct 20, 7:01pm

Sun Oct 20, 6:10pm

Sun Oct 20, 6:00pm

Sun Oct 20, 5:10pm

Sun Oct 20, 5:00pm

Sun Oct 20, 4:10pm

Sun Oct 20, 4:00pm

Sun Oct 20, 3:10pm

Sun Oct 20, 3:00pm

Sun Oct 20, 2:10pm

Sun Oct 20, 2:01pm

Sun Oct 20, 1:10pm

Sun Oct 20, 1:01pm

Sun Oct 20, 12:10pm

Sun Oct 20, 12:00pm

Sun Oct 20, 11:10am

Sun Oct 20, 11:00am

Sun Oct 20, 10:10am

Sun Oct 20, 10:00am

Sun Oct 20, 9:10am

Sun Oct 20, 9:00am

Sun Oct 20, 8:10am

Sun Oct 20, 8:00am

Sun Oct 20, 7:10am

Sun Oct 20, 7:00am

Sun Oct 20, 6:10am

Sun Oct 20, 6:00am

Sun Oct 20, 5:10am

Sun Oct 20, 5:00am

Sun Oct 20, 4:10am

Sun Oct 20, 4:00am

Sun Oct 20, 3:10am

Sun Oct 20, 3:00am

Sun Oct 20, 2:10am

Sun Oct 20, 2:00am

Sun Oct 20, 1:10am

Sun Oct 20, 1:00am

Sun Oct 20, 12:10am

Sun Oct 20, 12:00am

Sat Oct 19, 11:10pm

Sat Oct 19, 11:00pm

Sat Oct 19, 10:10pm

Sat Oct 19, 10:00pm

Sat Oct 19, 9:10pm

Sat Oct 19, 9:00pm

Sat Oct 19, 8:10pm

Sat Oct 19, 8:00pm

Sat Oct 19, 7:10pm

Sat Oct 19, 7:00pm

Sat Oct 19, 6:10pm

Sat Oct 19, 6:00pm

Sat Oct 19, 5:10pm

Sat Oct 19, 5:00pm

Sat Oct 19, 4:10pm

Sat Oct 19, 4:00pm

Sat Oct 19, 3:10pm

Sat Oct 19, 3:01pm

Sat Oct 19, 2:10pm

Sat Oct 19, 2:00pm

Sat Oct 19, 1:10pm

Sat Oct 19, 1:01pm

Sat Oct 19, 12:10pm

Sat Oct 19, 12:00pm

Sat Oct 19, 11:10am

Sat Oct 19, 11:01am

Sat Oct 19, 10:10am

Sat Oct 19, 10:00am

Sat Oct 19, 9:10am

Sat Oct 19, 9:00am

Sat Oct 19, 8:10am

Sat Oct 19, 8:00am

Sat Oct 19, 7:10am

Sat Oct 19, 7:00am

Sat Oct 19, 6:10am

Sat Oct 19, 6:00am

Sat Oct 19, 5:10am

Sat Oct 19, 5:00am

Sat Oct 19, 4:10am

Sat Oct 19, 4:00am

Sat Oct 19, 3:10am

Sat Oct 19, 3:00am

Meta data:

ID: 056883b3-cbaa-4ff3-97e8-1b8abf547e0c
Link: https://api.weather.gov/products/056883b3-cbaa-4ff3-97e8-1b8abf547e0c